Location: Bakov nad Jizerou
(50.4784°N, 14.9394°E)
Time: 08:22:02
(UTC+00:00)

Cosmos 2219 Rocket - Pass Details

Date: 16 June 2021
Orbit: 829 x 845 km, 71.0° (Epoch: 04 August)

Event Time Altitude Azimuth Distance (km) Brightness Sun altitude
Rises 23:06:40 0° 243° (WSW) 3,400 5.1 -16.1°
Reaches altitude 10° 23:09:24 10° 254° (WSW) 2,468 4.4 -16.1°
Maximum altitude 23:14:22 31° 315° (NW) 1,463 3.9 -16.1°
Drops below altitude 10° 23:19:21 10° 17° (NNE) 2,474 5.9 -16.0°
Sets 23:22:07 0° 28° (NNE) 3,410 6.7 -16.0°
